This is the latest recevied weather packets stored in our database for station/object KB4MOX. If no packets are shown the sender has not sent any weather packets the latest 10 day(s).
| Time | Temp. | Humidity | Pressure | Rain* | Wind** | Luminosity | Snow |
|---|---|---|---|---|---|---|---|
| 1787750803 | 23.89° C | 84% | 1018.9 hPa | 0 mm | - | 47 W/m² | - |
| 1787750498 | 23.89° C | 85% | 1018.6 hPa | 0 mm | - | 46 W/m² | - |
| 1787750193 | 23.89° C | 86% | 1018.8 hPa | 0 mm | - | 44 W/m² | - |
| 1787749889 | 23.33° C | 88% | 1018.9 hPa | 0 mm | - | 43 W/m² | - |
| 1787749585 | 23.33° C | 90% | 1018.8 hPa | 0 mm | - | 43 W/m² | - |
| 1787749280 | 22.78° C | 90% | 1019.1 hPa | 0 mm | - | 42 W/m² | - |
| 1787748980 | 22.78° C | 92% | 1018.9 hPa | 0 mm | - | 41 W/m² | - |
| 1787748674 | 22.78° C | 93% | 1018.9 hPa | 0 mm | - | 40 W/m² | - |
| 1787748370 | 22.22° C | 95% | 1018.8 hPa | 0 mm | - | 41 W/m² | - |
| 1787748066 | 21.67° C | 96% | 1018.8 hPa | 0 mm | - | 38 W/m² | - |
| 1787747765 | 21.67° C | 97% | 1018.8 hPa | 0 mm | - | 38 W/m² | - |
| 1787747462 | 21.67° C | 97% | 1018.9 hPa | 0 mm | - | 60 W/m² | - |
| 1787747161 | 21.11° C | 97% | 1018.6 hPa | 0 mm | - | 36 W/m² | - |
| 1787746858 | 21.11° C | 97% | 1018.7 hPa | 0 mm | - | 32 W/m² | - |
| 1787746557 | 21.11° C | 97% | 1018.7 hPa | 0 mm | - | 31 W/m² | - |
| 1787746257 | 20.56° C | 97% | 1018.7 hPa | 0 mm | - | 29 W/m² | - |
| 1787745950 | 20.56° C | 97% | 1018.6 hPa | 0 mm | - | 28 W/m² | - |
| 1787745649 | 20° C | 97% | 1018.7 hPa | 0 mm | - | 26 W/m² | - |
| 1787745344 | 20° C | 97% | 1018.6 hPa | 0 mm | - | 25 W/m² | - |
| 1787745043 | 20° C | 97% | 1018.6 hPa | 0 mm | - | 23 W/m² | - |
| 1787744740 | 19.44° C | 97% | 1018.4 hPa | 0 mm | - | 21 W/m² | - |
| 1787744436 | 19.44° C | 97% | 1018.3 hPa | 0 mm | - | 19 W/m² | - |
| 1787744132 | 19.44° C | 97% | 1018.3 hPa | 0 mm | - | 17 W/m² | - |
| 1787743827 | 19.44° C | 97% | 1018.2 hPa | 0 mm | - | 14 W/m² | - |
| 1787743526 | 19.44° C | 97% | 1018.1 hPa | 0 mm | - | 12 W/m² | - |
* Rain latest hour (hover to see other rain measurements)
** Current wind speed in m/s (hover to see current wind gust speed)